Horseheads, NY

7:44 PM EST on February 23, 2017 (GMT -0500)
Elmira-Corning Regional

Weather History for KELM - April, 2014

Change the Weather History Date:

Saturday, April 12, 2014

  Actual Average Record
Temperature  
Mean Temperature 54 °F -  
Max Temperature 72 °F 54 °F 85 °F (1977)
Min Temperature 37 °F 29 °F 18 °F (1976)
Degree Days  
Heating Degree Days 11    
Growing Degree Days 4 (Base 50)    
Moisture  
Dew Point 37 °F    
Average Humidity 74    
Maximum Humidity 100    
Minimum Humidity 21    
Precipitation  
Precipitation 0.00 in - - ()
Sea Level Pressure  
Sea Level Pressure 30.14 in    
Wind  
Wind Speed 6 mph (WSW)    
Max Wind Speed 14 mph    
Max Gust Speed 20 mph    
Visibility 5 miles    
Events Fog    
Averages and records for this station are not official NWS values.
T = Trace of Precipitation, MM = Missing Value Source: NWS Daily Summary

Daily Weather History Graph

Daily Weather History Graph

Search for Another Location

Airport or City:

Trip Planner

Search our weather history database for the weather conditions in past years. The results will help you decide how hot, cold, wet, or windy it might be!

Date:

Astronomy

Apr. 12, 2014 Rise Set
Actual Time 6:31 AM EDT 7:45 PM EDT
Civil Twilight 6:02 AM EDT 8:14 PM EDT
Nautical Twilight 5:28 AM EDT 8:49 PM EDT
Astronomical Twilight 4:52 AM EDT 9:25 PM EDT
Moon 5:19 PM EDT (4/12) 5:00 AM EDT (4/12)
Length of Visible Light 14h 11m
Length of Day
13h 13m
Waxing Gibbous, 93% of the Moon is Illuminated
Apr 12
Waxing Gibbous
Apr 15
Full
Apr 22
Last Quarter
Apr 29
New
May 6
First Quarter

Hourly Weather History & Observations

Time (EDT) Temp. Windchill Dew Point Humidity Pressure Visibility Wind Dir Wind Speed Gust Speed Precip Events Conditions
12:53 AM 41.0 °F 38.0 °F 39.0 °F 93% 30.10 in 0.2 mi WSW 4.6 mph - N/A Fog Fog
1:11 AM 41.0 °F 36.4 °F 39.2 °F 93% 30.09 in 0.5 mi WSW 6.9 mph - N/A Fog Fog
1:53 AM 39.9 °F 35.1 °F 39.0 °F 97% 30.11 in 0.8 mi West 6.9 mph - N/A   Mist
2:07 AM 39.2 °F 34.2 °F 39.2 °F 100% 30.09 in 1.2 mi WSW 6.9 mph - N/A   Overcast
2:18 AM 39.2 °F 34.2 °F 39.2 °F 100% 30.10 in 2.5 mi WSW 6.9 mph - N/A   Overcast
2:37 AM 39.2 °F 35.9 °F 39.2 °F 100% 30.09 in 1.8 mi WSW 4.6 mph - N/A   Overcast
2:49 AM 39.2 °F 35.0 °F 39.2 °F 100% 30.10 in 3.0 mi WSW 5.8 mph - N/A   Overcast
2:53 AM 39.9 °F 37.8 °F 39.0 °F 97% 30.11 in 4.0 mi WSW 3.5 mph - N/A   Overcast
3:53 AM 39.9 °F 35.8 °F 37.9 °F 93% 30.12 in 5.0 mi WSW 5.8 mph - N/A   Overcast
4:06 AM 39.2 °F 35.9 °F 37.4 °F 93% 30.11 in 1.8 mi SW 4.6 mph - N/A   Overcast
4:19 AM 39.2 °F 35.9 °F 37.4 °F 93% 30.11 in 3.0 mi West 4.6 mph - N/A   Overcast
4:28 AM 37.4 °F 34.9 °F 37.4 °F 100% 30.12 in 2.5 mi West 3.5 mph - N/A   Overcast
4:53 AM 37.0 °F 34.5 °F 36.0 °F 96% 30.14 in 3.0 mi West 3.5 mph - N/A   Overcast
5:06 AM 37.4 °F 34.9 °F 35.6 °F 93% 30.13 in 1.8 mi WNW 3.5 mph - N/A   Overcast
5:27 AM 37.4 °F 34.9 °F 35.6 °F 93% 30.14 in 0.8 mi West 3.5 mph - N/A   Mist
5:53 AM 37.0 °F 34.5 °F 36.0 °F 96% 30.17 in 1.0 mi WNW 3.5 mph - N/A   Mist
6:49 AM 37.4 °F 32.8 °F 35.6 °F 93% 30.18 in 3.0 mi WSW 5.8 mph - N/A   Overcast
6:53 AM 37.0 °F 34.5 °F 35.1 °F 93% 30.20 in 4.0 mi West 3.5 mph - N/A   Overcast
7:03 AM 37.4 °F 34.9 °F 35.6 °F 93% 30.18 in 1.5 mi West 3.5 mph - N/A   Overcast
7:53 AM 39.0 °F 34.0 °F 37.9 °F 96% 30.21 in 1.5 mi SW 6.9 mph - N/A   Overcast
8:00 AM 39.2 °F 35.0 °F 37.4 °F 93% 30.19 in 6.0 mi SW 5.8 mph - N/A   Overcast
8:08 AM 39.2 °F 35.0 °F 37.4 °F 93% 30.19 in 1.5 mi WSW 5.8 mph - N/A   Overcast
8:53 AM 41.0 °F 39.0 °F 39.9 °F 96% 30.22 in 1.5 mi SSW 3.5 mph - N/A   Overcast
9:14 AM 42.8 °F 40.1 °F 39.2 °F 87% 30.20 in 8.0 mi South 4.6 mph - N/A   Scattered Clouds
9:53 AM 46.9 °F - 41.0 °F 80% 30.22 in 10.0 mi SW 5.8 mph - N/A   Clear
10:53 AM 54.0 °F - 42.1 °F 64% 30.22 in 10.0 mi SW 6.9 mph - N/A   Clear
11:53 AM 60.1 °F - 39.0 °F 46% 30.20 in 10.0 mi SW 9.2 mph - N/A   Clear
12:53 PM 63.0 °F - 37.0 °F 38% 30.17 in 10.0 mi Variable 5.8 mph - N/A   Clear
1:53 PM 66.9 °F - 34.0 °F 30% 30.14 in 10.0 mi Variable 5.8 mph - N/A   Clear
2:53 PM 69.1 °F - 28.9 °F 22% 30.13 in 10.0 mi West 13.8 mph 19.6 mph N/A   Partly Cloudy
3:53 PM 70.0 °F - 28.0 °F 21% 30.11 in 10.0 mi West 8.1 mph 17.3 mph N/A   Clear
4:53 PM 71.1 °F - 28.9 °F 21% 30.11 in 10.0 mi WSW 8.1 mph - N/A   Scattered Clouds
5:53 PM 69.1 °F - 28.9 °F 22% 30.10 in 10.0 mi South 4.6 mph - N/A   Clear
6:53 PM 66.9 °F - 30.9 °F 26% 30.09 in 10.0 mi SSW 5.8 mph - N/A   Mostly Cloudy
7:53 PM 63.0 °F - 34.0 °F 34% 30.09 in 10.0 mi SSW 4.6 mph - N/A   Clear
8:53 PM 62.1 °F - 37.0 °F 39% 30.10 in 10.0 mi South 11.5 mph - N/A   Clear
9:53 PM 61.0 °F - 37.0 °F 41% 30.09 in 10.0 mi South 8.1 mph - N/A   Clear
10:53 PM 51.1 °F - 37.0 °F 59% 30.07 in 10.0 mi Variable 3.5 mph - N/A   Clear
11:53 PM 48.9 °F - 37.0 °F 64% 30.06 in 10.0 mi Calm Calm - N/A   Clear